Wetterdaten: Mittwoch, 10.06.2020
Datum Zeit Temp. Auen Feucht Auen Luftdruck Regen Richtung Richtung Windben
10.06.2020 00:00 13,5 C 91 % 1011,6 hPa 0,0 mm W 263 4,8 km/h (1 Bft)
10.06.2020 00:05 13,6 C 92 % 1011,6 hPa 0,0 mm W 263 4,8 km/h (1 Bft)
10.06.2020 00:10 13,5 C 92 % 1011,7 hPa 0,0 mm W 263 4,8 km/h (1 Bft)
10.06.2020 00:15 13,4 C 92 % 1011,7 hPa 0,0 mm W 263 1,6 km/h (1 Bft)
10.06.2020 00:20 13,4 C 92 % 1011,7 hPa 0,0 mm W 263 3,2 km/h (1 Bft)
10.06.2020 00:25 13,4 C 92 % 1011,7 hPa 0,0 mm W 263 3,2 km/h (1 Bft)
10.06.2020 00:30 13,4 C 91 % 1011,6 hPa 0,0 mm W 263 4,8 km/h (1 Bft)
10.06.2020 00:35 13,4 C 92 % 1011,6 hPa 0,0 mm W 263 6,4 km/h (2 Bft)
10.06.2020 00:40 13,4 C 92 % 1011,6 hPa 0,0 mm W 263 6,4 km/h (2 Bft)
10.06.2020 00:45 13,3 C 92 % 1011,6 hPa 0,0 mm W 263 6,4 km/h (2 Bft)
10.06.2020 00:50 13,4 C 92 % 1011,6 hPa 0,0 mm W 263 3,2 km/h (1 Bft)
10.06.2020 00:55 13,3 C 92 % 1011,6 hPa 0,0 mm W 263 1,6 km/h (1 Bft)
10.06.2020 01:00 13,3 C 92 % 1011,6 hPa 0,0 mm W 263 4,8 km/h (1 Bft)
10.06.2020 01:05 13,3 C 92 % 1011,5 hPa 0,0 mm W 263 4,8 km/h (1 Bft)
10.06.2020 01:10 13,3 C 92 % 1011,6 hPa 0,0 mm W 272 6,4 km/h (2 Bft)
10.06.2020 01:15 13,3 C 92 % 1011,6 hPa 0,0 mm W 272 4,8 km/h (1 Bft)
10.06.2020 01:20 13,3 C 92 % 1011,6 hPa 0,0 mm W 272 4,8 km/h (1 Bft)
10.06.2020 01:25 13,3 C 92 % 1011,5 hPa 0,0 mm W 272 4,8 km/h (1 Bft)
10.06.2020 01:30 13,3 C 92 % 1011,5 hPa 0,0 mm W 272 4,8 km/h (1 Bft)
10.06.2020 01:35 13,3 C 92 % 1011,5 hPa 0,0 mm W 272 6,4 km/h (2 Bft)
10.06.2020 01:40 13,3 C 92 % 1011,4 hPa 0,0 mm W 272 6,4 km/h (2 Bft)
10.06.2020 01:45 13,3 C 92 % 1011,3 hPa 0,0 mm W-NW 283 6,4 km/h (2 Bft)
10.06.2020 01:50 13,2 C 92 % 1011,3 hPa 0,0 mm W-NW 282 6,4 km/h (2 Bft)
10.06.2020 01:55 13,2 C 92 % 1011,3 hPa 0,0 mm W-NW 283 6,4 km/h (2 Bft)
10.06.2020 02:00 13,2 C 92 % 1011,2 hPa 0,0 mm W-NW 283 4,8 km/h (1 Bft)
10.06.2020 02:05 13,1 C 92 % 1011,2 hPa 0,0 mm W-NW 283 4,8 km/h (1 Bft)
10.06.2020 02:10 13,1 C 92 % 1011,2 hPa 0,0 mm W-NW 283 4,8 km/h (1 Bft)
10.06.2020 02:15 13,1 C 92 % 1011,1 hPa 0,0 mm W-NW 283 4,8 km/h (1 Bft)
10.06.2020 02:20 13,1 C 92 % 1011,2 hPa 0,0 mm W-NW 283 3,2 km/h (1 Bft)
10.06.2020 02:25 13,0 C 92 % 1011,1 hPa 0,0 mm W-NW 283 3,2 km/h (1 Bft)
10.06.2020 02:30 13,0 C 92 % 1011,1 hPa 0,0 mm W-NW 283 3,2 km/h (1 Bft)
10.06.2020 02:35 13,0 C 92 % 1011,1 hPa 0,2 mm W-NW 283 4,8 km/h (1 Bft)
10.06.2020 02:40 12,9 C 92 % 1011,1 hPa 0,0 mm W-NW 283 4,8 km/h (1 Bft)
10.06.2020 02:45 12,9 C 92 % 1011,1 hPa 0,0 mm W-NW 282 6,4 km/h (2 Bft)
10.06.2020 02:50 12,9 C 92 % 1011,1 hPa 0,0 mm W-NW 282 4,8 km/h (1 Bft)
10.06.2020 02:55 12,9 C 92 % 1011,1 hPa 0,0 mm W-NW 282 6,4 km/h (2 Bft)
10.06.2020 03:00 12,9 C 92 % 1011,1 hPa 0,0 mm W-NW 282 4,8 km/h (1 Bft)
10.06.2020 03:05 12,9 C 92 % 1011,1 hPa 0,0 mm W-NW 282 3,2 km/h (1 Bft)
10.06.2020 03:10 12,9 C 92 % 1011,1 hPa 0,0 mm W-NW 282 3,2 km/h (1 Bft)
10.06.2020 03:15 12,9 C 92 % 1011,1 hPa 0,0 mm W-NW 282 4,8 km/h (1 Bft)
10.06.2020 03:20 12,9 C 92 % 1011,1 hPa 0,0 mm W 281 6,4 km/h (2 Bft)
10.06.2020 03:25 12,8 C 92 % 1011,0 hPa 0,0 mm W 277 6,4 km/h (2 Bft)
10.06.2020 03:30 12,8 C 92 % 1010,9 hPa 0,0 mm W 277 4,8 km/h (1 Bft)
10.06.2020 03:35 12,8 C 92 % 1010,9 hPa 0,0 mm W 277 4,8 km/h (1 Bft)
10.06.2020 03:40 12,8 C 92 % 1010,9 hPa 0,0 mm W 277 3,2 km/h (1 Bft)
10.06.2020 03:45 12,8 C 92 % 1010,9 hPa 0,0 mm W 277 3,2 km/h (1 Bft)
10.06.2020 03:50 12,8 C 92 % 1010,8 hPa 0,0 mm W 277 4,8 km/h (1 Bft)
10.06.2020 03:55 12,8 C 92 % 1010,8 hPa 0,0 mm W 277 6,4 km/h (2 Bft)
10.06.2020 04:00 12,7 C 92 % 1010,8 hPa 0,0 mm W 277 3,2 km/h (1 Bft)
10.06.2020 04:05 12,7 C 92 % 1010,8 hPa 0,0 mm W 277 4,8 km/h (1 Bft)
10.06.2020 04:10 12,7 C 92 % 1010,8 hPa 0,0 mm W 277 4,8 km/h (1 Bft)
10.06.2020 04:15 12,7 C 92 % 1010,8 hPa 0,0 mm W 277 1,6 km/h (1 Bft)
10.06.2020 04:20 12,7 C 92 % 1010,8 hPa 0,0 mm W 277 1,6 km/h (1 Bft)
10.06.2020 04:25 12,7 C 92 % 1010,8 hPa 0,0 mm W 277 1,6 km/h (1 Bft)
10.06.2020 04:30 12,7 C 92 % 1010,7 hPa 0,0 mm W 277 1,6 km/h (1 Bft)
10.06.2020 04:35 12,7 C 92 % 1010,7 hPa 0,0 mm W 277 4,8 km/h (1 Bft)
10.06.2020 04:40 12,7 C 92 % 1010,7 hPa 0,0 mm W 277 3,2 km/h (1 Bft)
10.06.2020 04:45 12,7 C 92 % 1010,7 hPa 0,0 mm W 277 1,6 km/h (1 Bft)
10.06.2020 04:50 12,7 C 92 % 1010,7 hPa 0,0 mm W 277 1,6 km/h (1 Bft)
10.06.2020 04:55 12,7 C 93 % 1010,7 hPa 0,0 mm W 277 3,2 km/h (1 Bft)
10.06.2020 05:00 12,7 C 93 % 1010,7 hPa 0,0 mm W 277 0,0 km/h (0 Bft)
10.06.2020 05:05 12,6 C 93 % 1010,7 hPa 0,0 mm W 277 0,0 km/h (0 Bft)
10.06.2020 05:10 12,6 C 93 % 1010,7 hPa 0,0 mm W 277 0,0 km/h (0 Bft)
10.06.2020 05:15 12,6 C 93 % 1010,7 hPa 0,0 mm W 277 0,0 km/h (0 Bft)
10.06.2020 05:20 12,6 C 93 % 1010,7 hPa 0,0 mm W 277 3,2 km/h (1 Bft)
10.06.2020 05:25 12,6 C 93 % 1010,8 hPa 0,0 mm W 277 4,8 km/h (1 Bft)
10.06.2020 05:30 12,6 C 93 % 1010,7 hPa 0,0 mm W 277 4,8 km/h (1 Bft)
10.06.2020 05:35 12,6 C 93 % 1010,7 hPa 0,0 mm W 277 3,2 km/h (1 Bft)
10.06.2020 05:40 12,6 C 93 % 1010,8 hPa 0,0 mm W 277 1,6 km/h (1 Bft)
10.06.2020 05:45 12,6 C 93 % 1010,8 hPa 0,0 mm W 277 1,6 km/h (1 Bft)
10.06.2020 05:50 12,6 C 93 % 1010,8 hPa 0,0 mm W 277 3,2 km/h (1 Bft)
10.06.2020 05:55 12,6 C 93 % 1010,9 hPa 0,0 mm W 277 1,6 km/h (1 Bft)
10.06.2020 06:00 12,6 C 93 % 1010,8 hPa 0,0 mm W 277 1,6 km/h (1 Bft)
10.06.2020 06:05 12,6 C 93 % 1010,7 hPa 0,0 mm W 277 1,6 km/h (1 Bft)
10.06.2020 06:10 12,6 C 93 % 1010,7 hPa 0,0 mm W 277 0,0 km/h (0 Bft)
10.06.2020 06:15 12,6 C 93 % 1010,7 hPa 0,0 mm W 277 0,0 km/h (0 Bft)
10.06.2020 06:20 12,6 C 93 % 1010,7 hPa 0,0 mm W 277 0,0 km/h (0 Bft)
10.06.2020 06:25 12,6 C 93 % 1010,7 hPa 0,0 mm W 277 0,0 km/h (0 Bft)
10.06.2020 06:30 12,5 C 93 % 1010,6 hPa 0,0 mm W 277 0,0 km/h (0 Bft)
10.06.2020 06:35 12,6 C 93 % 1010,6 hPa 0,0 mm W 277 1,6 km/h (1 Bft)
10.06.2020 06:40 12,6 C 93 % 1010,6 hPa 0,0 mm W 277 3,2 km/h (1 Bft)
10.06.2020 06:45 12,6 C 93 % 1010,6 hPa 0,0 mm W 277 0,0 km/h (0 Bft)
10.06.2020 06:50 12,7 C 93 % 1010,5 hPa 0,0 mm W 277 1,6 km/h (1 Bft)
10.06.2020 06:55 12,7 C 93 % 1010,5 hPa 0,0 mm W 277 1,6 km/h (1 Bft)
10.06.2020 07:00 12,8 C 93 % 1010,5 hPa 0,0 mm W 277 3,2 km/h (1 Bft)
10.06.2020 07:05 12,8 C 93 % 1010,5 hPa 0,0 mm W 277 1,6 km/h (1 Bft)
10.06.2020 07:10 12,9 C 93 % 1010,6 hPa 0,0 mm W 277 1,6 km/h (1 Bft)
10.06.2020 07:15 12,9 C 93 % 1010,5 hPa 0,0 mm W 277 3,2 km/h (1 Bft)
10.06.2020 07:20 13,0 C 93 % 1010,5 hPa 0,0 mm W 277 1,6 km/h (1 Bft)
10.06.2020 07:25 13,1 C 93 % 1010,5 hPa 0,0 mm W 277 1,6 km/h (1 Bft)
10.06.2020 07:30 13,1 C 93 % 1010,5 hPa 0,0 mm W 277 4,8 km/h (1 Bft)
10.06.2020 07:35 13,2 C 93 % 1010,5 hPa 0,0 mm W 277 3,2 km/h (1 Bft)
10.06.2020 07:40 13,2 C 93 % 1010,4 hPa 0,0 mm W 277 3,2 km/h (1 Bft)
10.06.2020 07:45 13,3 C 93 % 1010,4 hPa 0,0 mm W 277 1,6 km/h (1 Bft)
10.06.2020 07:50 13,3 C 93 % 1010,5 hPa 0,0 mm W 277 4,8 km/h (1 Bft)
10.06.2020 07:55 13,3 C 93 % 1010,5 hPa 0,0 mm W 277 4,8 km/h (1 Bft)
10.06.2020 08:00 13,3 C 93 % 1010,5 hPa 0,0 mm W 277 4,8 km/h (1 Bft)
10.06.2020 08:05 13,4 C 93 % 1010,4 hPa 0,0 mm W 277 4,8 km/h (1 Bft)
10.06.2020 08:10 13,5 C 93 % 1010,2 hPa 0,0 mm W 276 8,0 km/h (2 Bft)
10.06.2020 08:15 13,7 C 93 % 1010,3 hPa 0,0 mm W 269 8,0 km/h (2 Bft)
10.06.2020 08:20 13,8 C 92 % 1010,2 hPa 0,0 mm W 269 8,0 km/h (2 Bft)
10.06.2020 08:25 14,1 C 92 % 1010,2 hPa 0,0 mm W 269 4,8 km/h (1 Bft)
10.06.2020 08:30 14,2 C 92 % 1010,2 hPa 0,0 mm W 268 8,0 km/h (2 Bft)
10.06.2020 08:35 14,2 C 92 % 1010,2 hPa 0,0 mm W 265 9,7 km/h (2 Bft)
10.06.2020 08:40 14,2 C 91 % 1010,2 hPa 0,0 mm W 268 8,0 km/h (2 Bft)
10.06.2020 08:45 14,4 C 91 % 1010,2 hPa 0,0 mm W 268 4,8 km/h (1 Bft)
10.06.2020 08:50 14,3 C 90 % 1010,3 hPa 0,0 mm W 271 8,0 km/h (2 Bft)
10.06.2020 08:55 14,3 C 90 % 1010,3 hPa 0,0 mm W 273 8,0 km/h (2 Bft)
10.06.2020 09:00 14,3 C 90 % 1010,3 hPa 0,0 mm W-NW 286 8,0 km/h (2 Bft)
10.06.2020 09:05 14,3 C 89 % 1010,4 hPa 0,0 mm W 269 9,7 km/h (2 Bft)
10.06.2020 09:10 14,3 C 89 % 1010,5 hPa 0,0 mm W 271 6,4 km/h (2 Bft)
10.06.2020 09:15 14,3 C 89 % 1010,4 hPa 0,0 mm W 269 8,0 km/h (2 Bft)
10.06.2020 09:20 14,3 C 89 % 1010,5 hPa 0,0 mm W 271 8,0 km/h (2 Bft)
10.06.2020 09:25 14,4 C 89 % 1010,4 hPa 0,0 mm W 261 8,0 km/h (2 Bft)
10.06.2020 09:30 14,7 C 89 % 1010,5 hPa 0,0 mm W 267 8,0 km/h (2 Bft)
10.06.2020 09:35 14,7 C 88 % 1010,5 hPa 0,0 mm W 278 6,4 km/h (2 Bft)
10.06.2020 09:40 14,7 C 88 % 1010,5 hPa 0,0 mm W-NW 292 8,0 km/h (2 Bft)
10.06.2020 09:45 14,7 C 88 % 1010,5 hPa 0,0 mm W 277 8,0 km/h (2 Bft)
10.06.2020 09:50 14,8 C 88 % 1010,5 hPa 0,0 mm W 277 8,0 km/h (2 Bft)
10.06.2020 09:55 14,8 C 87 % 1010,6 hPa 0,0 mm W 269 8,0 km/h (2 Bft)
10.06.2020 10:00 14,8 C 88 % 1010,5 hPa 0,0 mm W 266 8,0 km/h (2 Bft)
10.06.2020 10:05 14,9 C 87 % 1010,5 hPa 0,0 mm W 275 9,7 km/h (2 Bft)
10.06.2020 10:10 15,1 C 87 % 1010,5 hPa 0,0 mm W 265 9,7 km/h (2 Bft)
10.06.2020 10:15 15,1 C 87 % 1010,5 hPa 0,0 mm W 273 9,7 km/h (2 Bft)
10.06.2020 10:20 14,9 C 86 % 1010,5 hPa 0,0 mm W 273 8,0 km/h (2 Bft)
10.06.2020 10:25 14,8 C 86 % 1010,5 hPa 0,0 mm W 273 8,0 km/h (2 Bft)
10.06.2020 10:30 14,8 C 86 % 1010,4 hPa 0,0 mm W 277 4,8 km/h (1 Bft)
10.06.2020 10:35 14,8 C 86 % 1010,4 hPa 0,0 mm W 275 8,0 km/h (2 Bft)
10.06.2020 10:40 14,7 C 86 % 1010,3 hPa 0,0 mm W 276 6,4 km/h (2 Bft)
10.06.2020 10:45 14,8 C 86 % 1010,3 hPa 0,0 mm W 276 6,4 km/h (2 Bft)
10.06.2020 10:50 14,9 C 86 % 1010,3 hPa 0,0 mm W 276 6,4 km/h (2 Bft)
10.06.2020 10:55 14,9 C 86 % 1010,2 hPa 0,0 mm W 275 6,4 km/h (2 Bft)
10.06.2020 11:00 14,9 C 86 % 1010,2 hPa 0,0 mm W 271 8,0 km/h (2 Bft)
10.06.2020 11:05 14,8 C 86 % 1010,1 hPa 0,0 mm W 270 6,4 km/h (2 Bft)
10.06.2020 11:10 14,9 C 86 % 1010,1 hPa 0,0 mm W 270 6,4 km/h (2 Bft)
10.06.2020 11:15 15,1 C 86 % 1010,0 hPa 0,0 mm W 270 6,4 km/h (2 Bft)
10.06.2020 11:20 15,2 C 86 % 1010,0 hPa 0,0 mm W 269 8,0 km/h (2 Bft)
10.06.2020 11:25 15,4 C 86 % 1009,9 hPa 0,0 mm W 272 6,4 km/h (2 Bft)
10.06.2020 11:30 15,6 C 86 % 1009,9 hPa 0,0 mm W 262 8,0 km/h (2 Bft)
10.06.2020 11:35 15,8 C 86 % 1009,8 hPa 0,0 mm W 263 4,8 km/h (1 Bft)
10.06.2020 11:40 15,8 C 85 % 1009,8 hPa 0,0 mm W 264 8,0 km/h (2 Bft)
10.06.2020 11:45 15,8 C 85 % 1009,8 hPa 0,0 mm W 264 3,2 km/h (1 Bft)
10.06.2020 11:50 15,6 C 85 % 1009,8 hPa 0,0 mm W 264 1,6 km/h (1 Bft)
10.06.2020 11:55 15,5 C 86 % 1009,8 hPa 0,0 mm W 264 4,8 km/h (1 Bft)
10.06.2020 12:00 15,6 C 85 % 1009,8 hPa 0,0 mm W 264 4,8 km/h (1 Bft)
10.06.2020 12:05 15,5 C 85 % 1009,7 hPa 0,0 mm W 264 4,8 km/h (1 Bft)
10.06.2020 12:10 15,4 C 84 % 1009,7 hPa 0,0 mm W 264 6,4 km/h (2 Bft)
10.06.2020 12:15 15,4 C 84 % 1009,7 hPa 0,0 mm W 264 6,4 km/h (2 Bft)
10.06.2020 12:20 15,4 C 84 % 1009,7 hPa 0,0 mm W 264 6,4 km/h (2 Bft)
10.06.2020 12:25 15,4 C 84 % 1009,7 hPa 0,0 mm W 264 6,4 km/h (2 Bft)
10.06.2020 12:30 15,4 C 84 % 1009,7 hPa 0,0 mm W 264 3,2 km/h (1 Bft)
10.06.2020 12:35 15,4 C 84 % 1009,6 hPa 0,0 mm W 264 6,4 km/h (2 Bft)
10.06.2020 12:40 15,4 C 84 % 1009,6 hPa 0,0 mm W 275 8,0 km/h (2 Bft)
10.06.2020 12:45 15,4 C 85 % 1009,7 hPa 0,0 mm W 275 6,4 km/h (2 Bft)
10.06.2020 12:50 15,3 C 85 % 1009,6 hPa 0,0 mm W 275 4,8 km/h (1 Bft)
10.06.2020 12:55 15,3 C 85 % 1009,6 hPa 0,0 mm W 267 8,0 km/h (2 Bft)
10.06.2020 13:00 15,2 C 85 % 1009,6 hPa 0,0 mm W 267 4,8 km/h (1 Bft)
10.06.2020 13:05 15,1 C 85 % 1009,6 hPa 0,0 mm W 267 4,8 km/h (1 Bft)
10.06.2020 13:10 15,2 C 85 % 1009,6 hPa 0,0 mm W 267 3,2 km/h (1 Bft)
10.06.2020 13:15 15,1 C 85 % 1009,5 hPa 0,0 mm W 267 6,4 km/h (2 Bft)
10.06.2020 13:20 15,1 C 86 % 1009,5 hPa 0,0 mm W 267 6,4 km/h (2 Bft)
10.06.2020 13:25 15,1 C 86 % 1009,5 hPa 0,0 mm W 267 4,8 km/h (1 Bft)
10.06.2020 13:30 15,1 C 87 % 1009,5 hPa 0,0 mm W 267 4,8 km/h (1 Bft)
10.06.2020 13:35 15,0 C 87 % 1009,5 hPa 0,0 mm W 267 4,8 km/h (1 Bft)
10.06.2020 13:40 14,9 C 88 % 1009,5 hPa 0,0 mm W 267 4,8 km/h (1 Bft)
10.06.2020 13:45 14,7 C 88 % 1009,6 hPa 0,2 mm W 267 3,2 km/h (1 Bft)
10.06.2020 13:50 14,6 C 90 % 1009,4 hPa 0,0 mm W 267 3,2 km/h (1 Bft)
10.06.2020 13:55 14,3 C 90 % 1009,4 hPa 0,0 mm W 267 1,6 km/h (1 Bft)
10.06.2020 14:00 14,2 C 90 % 1009,5 hPa 0,0 mm W 267 1,6 km/h (1 Bft)
10.06.2020 14:05 14,3 C 90 % 1009,5 hPa 0,0 mm W-NW 299 4,8 km/h (1 Bft)
10.06.2020 14:10 14,3 C 90 % 1009,5 hPa 0,0 mm O-NO 72 9,7 km/h (2 Bft)
10.06.2020 14:15 14,2 C 90 % 1009,5 hPa 0,4 mm O 90 12,9 km/h (3 Bft)
10.06.2020 14:20 14,1 C 91 % 1009,5 hPa 0,8 mm N-NO 15 9,7 km/h (2 Bft)
10.06.2020 14:25 14,1 C 91 % 1009,4 hPa 0,2 mm N-NO 19 9,7 km/h (2 Bft)
10.06.2020 14:30 14,0 C 91 % 1009,3 hPa 0,0 mm N-NO 21 8,0 km/h (2 Bft)
10.06.2020 14:35 14,0 C 91 % 1009,3 hPa 0,0 mm NO 54 6,4 km/h (2 Bft)
10.06.2020 14:40 13,9 C 91 % 1009,3 hPa 0,2 mm NO 48 6,4 km/h (2 Bft)
10.06.2020 14:45 13,9 C 91 % 1009,3 hPa 0,0 mm NO 48 4,8 km/h (1 Bft)
10.06.2020 14:50 13,9 C 92 % 1009,3 hPa 0,0 mm NO 48 1,6 km/h (1 Bft)
10.06.2020 14:55 14,0 C 92 % 1009,2 hPa 0,2 mm NO 48 1,6 km/h (1 Bft)
10.06.2020 15:00 13,9 C 92 % 1009,2 hPa 0,0 mm NO 48 0,0 km/h (0 Bft)
10.06.2020 15:05 13,8 C 92 % 1009,2 hPa 0,0 mm NO 48 0,0 km/h (0 Bft)
10.06.2020 15:10 13,8 C 92 % 1009,2 hPa 0,0 mm NO 48 0,0 km/h (0 Bft)
10.06.2020 15:15 13,8 C 92 % 1009,2 hPa 0,0 mm NO 48 0,0 km/h (0 Bft)
10.06.2020 15:20 13,7 C 92 % 1009,1 hPa 0,2 mm NO 48 0,0 km/h (0 Bft)
10.06.2020 15:25 13,7 C 92 % 1009,2 hPa 0,0 mm NO 48 0,0 km/h (0 Bft)
10.06.2020 15:30 13,8 C 92 % 1009,1 hPa 0,0 mm NO 48 0,0 km/h (0 Bft)
10.06.2020 15:35 14,1 C 93 % 1009,2 hPa 0,2 mm NO 48 0,0 km/h (0 Bft)
10.06.2020 15:40 14,3 C 93 % 1009,2 hPa 0,0 mm NO 48 1,6 km/h (1 Bft)
10.06.2020 15:45 14,6 C 93 % 1009,1 hPa 0,0 mm NW 307 4,8 km/h (1 Bft)
10.06.2020 15:50 14,8 C 93 % 1009,1 hPa 0,0 mm NW 306 4,8 km/h (1 Bft)
10.06.2020 15:55 14,7 C 92 % 1009,1 hPa 0,0 mm W 274 6,4 km/h (2 Bft)
10.06.2020 16:00 14,9 C 92 % 1009,1 hPa 0,0 mm W 274 4,8 km/h (1 Bft)
10.06.2020 16:05 14,9 C 92 % 1009,1 hPa 0,0 mm W 270 8,0 km/h (2 Bft)
10.06.2020 16:10 15,2 C 92 % 1009,0 hPa 0,0 mm W 270 4,8 km/h (1 Bft)
10.06.2020 16:15 15,1 C 92 % 1009,1 hPa 0,0 mm W 270 3,2 km/h (1 Bft)
10.06.2020 16:20 15,3 C 91 % 1009,1 hPa 0,0 mm W 270 4,8 km/h (1 Bft)
10.06.2020 16:25 15,6 C 91 % 1009,0 hPa 0,0 mm W 270 1,6 km/h (1 Bft)
10.06.2020 16:30 15,8 C 91 % 1009,0 hPa 0,0 mm W 270 6,4 km/h (2 Bft)
10.06.2020 16:35 15,7 C 90 % 1009,0 hPa 0,0 mm W 270 8,0 km/h (2 Bft)
10.06.2020 16:40 15,6 C 89 % 1008,9 hPa 0,0 mm W 270 4,8 km/h (1 Bft)
10.06.2020 16:45 15,2 C 88 % 1008,9 hPa 0,0 mm W 270 1,6 km/h (1 Bft)
10.06.2020 16:50 15,1 C 88 % 1008,9 hPa 0,0 mm W 270 4,8 km/h (1 Bft)
10.06.2020 16:55 15,1 C 89 % 1009,0 hPa 0,0 mm O-NO 78 12,9 km/h (3 Bft)
10.06.2020 17:00 15,0 C 89 % 1009,0 hPa 0,0 mm O-SO 109 9,7 km/h (2 Bft)
10.06.2020 17:05 14,8 C 89 % 1009,0 hPa 0,0 mm O 90 11,3 km/h (2 Bft)
10.06.2020 17:10 14,6 C 89 % 1009,0 hPa 0,2 mm O 85 9,7 km/h (2 Bft)
10.06.2020 17:15 14,4 C 89 % 1009,1 hPa 0,0 mm O-NO 77 6,4 km/h (2 Bft)
10.06.2020 17:20 14,3 C 89 % 1009,1 hPa 0,0 mm SO 138 4,8 km/h (1 Bft)
10.06.2020 17:25 14,3 C 89 % 1009,1 hPa 0,0 mm SO 144 4,8 km/h (1 Bft)
10.06.2020 17:30 14,2 C 89 % 1009,0 hPa 0,0 mm SO 144 4,8 km/h (1 Bft)
10.06.2020 17:35 14,1 C 90 % 1009,0 hPa 0,2 mm SO 144 4,8 km/h (1 Bft)
10.06.2020 17:40 14,1 C 90 % 1009,1 hPa 0,0 mm SO 144 0,0 km/h (0 Bft)
10.06.2020 17:45 14,1 C 90 % 1009,0 hPa 0,2 mm SO 144 0,0 km/h (0 Bft)
10.06.2020 17:50 14,1 C 90 % 1009,0 hPa 0,2 mm SO 144 0,0 km/h (0 Bft)
10.06.2020 17:55 14,0 C 90 % 1009,0 hPa 0,2 mm SO 144 0,0 km/h (0 Bft)
10.06.2020 18:00 14,0 C 90 % 1009,0 hPa 0,4 mm SO 144 3,2 km/h (1 Bft)
10.06.2020 18:05 13,9 C 90 % 1009,0 hPa 0,2 mm SO 144 3,2 km/h (1 Bft)
10.06.2020 18:10 13,9 C 90 % 1009,0 hPa 0,2 mm SO 144 1,6 km/h (1 Bft)
10.06.2020 18:15 13,9 C 91 % 1008,9 hPa 0,2 mm SO 144 0,0 km/h (0 Bft)
10.06.2020 18:20 13,9 C 91 % 1008,7 hPa 0,2 mm SO 144 4,8 km/h (1 Bft)
10.06.2020 18:25 13,8 C 91 % 1008,7 hPa 0,0 mm SO 144 3,2 km/h (1 Bft)
10.06.2020 18:30 13,8 C 91 % 1008,7 hPa 0,2 mm SO 144 3,2 km/h (1 Bft)
10.06.2020 18:35 13,8 C 91 % 1008,7 hPa 0,2 mm SO 144 3,2 km/h (1 Bft)
10.06.2020 18:40 13,8 C 91 % 1008,7 hPa 0,0 mm SO 145 4,8 km/h (1 Bft)
10.06.2020 18:45 13,8 C 91 % 1008,7 hPa 0,0 mm SO 145 0,0 km/h (0 Bft)
10.06.2020 18:50 13,8 C 91 % 1008,7 hPa 0,0 mm SO 145 0,0 km/h (0 Bft)
10.06.2020 18:55 13,7 C 91 % 1008,7 hPa 0,0 mm SO 145 0,0 km/h (0 Bft)
10.06.2020 19:00 13,7 C 91 % 1008,8 hPa 0,2 mm SO 145 0,0 km/h (0 Bft)
10.06.2020 19:05 13,7 C 91 % 1008,7 hPa 0,0 mm SO 145 0,0 km/h (0 Bft)
10.06.2020 19:10 13,7 C 91 % 1008,8 hPa 0,0 mm SO 145 0,0 km/h (0 Bft)
10.06.2020 19:15 13,7 C 91 % 1008,7 hPa 0,0 mm SO 145 0,0 km/h (0 Bft)
10.06.2020 19:20 13,7 C 91 % 1008,7 hPa 0,0 mm SO 145 0,0 km/h (0 Bft)
10.06.2020 19:25 13,7 C 91 % 1008,7 hPa 0,0 mm SO 145 0,0 km/h (0 Bft)
10.06.2020 19:30 13,7 C 91 % 1008,7 hPa 0,0 mm SO 145 0,0 km/h (0 Bft)
10.06.2020 19:35 13,7 C 92 % 1008,7 hPa 0,0 mm SO 145 0,0 km/h (0 Bft)
10.06.2020 19:40 13,7 C 92 % 1008,6 hPa 0,0 mm SO 145 0,0 km/h (0 Bft)
10.06.2020 19:45 13,7 C 92 % 1008,6 hPa 0,0 mm SO 145 0,0 km/h (0 Bft)
10.06.2020 19:50 13,8 C 92 % 1008,6 hPa 0,0 mm SO 145 0,0 km/h (0 Bft)
10.06.2020 19:55 13,8 C 92 % 1008,6 hPa 0,0 mm SO 145 0,0 km/h (0 Bft)
10.06.2020 20:00 13,8 C 92 % 1008,5 hPa 0,0 mm SO 145 1,6 km/h (1 Bft)
10.06.2020 20:05 13,8 C 92 % 1008,6 hPa 0,0 mm SO 145 0,0 km/h (0 Bft)
10.06.2020 20:10 13,8 C 92 % 1008,6 hPa 0,0 mm SO 145 1,6 km/h (1 Bft)
10.06.2020 20:15 13,8 C 92 % 1008,6 hPa 0,0 mm SO 145 0,0 km/h (0 Bft)
10.06.2020 20:20 13,8 C 92 % 1008,6 hPa 0,0 mm SO 145 0,0 km/h (0 Bft)
10.06.2020 20:25 13,8 C 92 % 1008,6 hPa 0,0 mm SO 145 0,0 km/h (0 Bft)
10.06.2020 20:30 13,8 C 92 % 1008,7 hPa 0,0 mm SO 145 0,0 km/h (0 Bft)
10.06.2020 20:35 13,8 C 92 % 1008,6 hPa 0,0 mm SO 145 0,0 km/h (0 Bft)
10.06.2020 20:40 13,8 C 92 % 1008,7 hPa 0,0 mm SO 145 0,0 km/h (0 Bft)
10.06.2020 20:45 13,8 C 92 % 1008,6 hPa 0,0 mm SO 145 0,0 km/h (0 Bft)
10.06.2020 20:50 13,8 C 92 % 1008,6 hPa 0,0 mm SO 145 1,6 km/h (1 Bft)
10.06.2020 20:55 13,8 C 92 % 1008,6 hPa 0,0 mm SO 145 0,0 km/h (0 Bft)
10.06.2020 21:00 13,7 C 92 % 1008,6 hPa 0,0 mm SO 145 0,0 km/h (0 Bft)
10.06.2020 21:05 13,7 C 92 % 1008,6 hPa 0,0 mm SO 145 0,0 km/h (0 Bft)
10.06.2020 21:10 13,7 C 92 % 1008,6 hPa 0,0 mm SO 145 0,0 km/h (0 Bft)
10.06.2020 21:15 13,6 C 92 % 1008,6 hPa 0,0 mm SO 145 0,0 km/h (0 Bft)
10.06.2020 21:20 13,6 C 92 % 1008,7 hPa 0,0 mm SO 145 1,6 km/h (1 Bft)
10.06.2020 21:25 13,4 C 92 % 1008,7 hPa 0,0 mm SO 145 0,0 km/h (0 Bft)
10.06.2020 21:30 13,4 C 92 % 1008,7 hPa 0,0 mm SO 145 0,0 km/h (0 Bft)
10.06.2020 21:35 13,3 C 92 % 1008,7 hPa 0,0 mm SO 145 0,0 km/h (0 Bft)
10.06.2020 21:40 13,3 C 92 % 1008,8 hPa 0,0 mm SO 145 0,0 km/h (0 Bft)
10.06.2020 21:45 13,3 C 92 % 1008,9 hPa 0,0 mm SO 145 0,0 km/h (0 Bft)
10.06.2020 21:50 13,2 C 92 % 1008,9 hPa 0,0 mm SO 145 0,0 km/h (0 Bft)
10.06.2020 21:55 13,2 C 92 % 1008,9 hPa 0,0 mm SO 145 0,0 km/h (0 Bft)
10.06.2020 22:00 13,2 C 92 % 1009,0 hPa 0,0 mm SO 145 0,0 km/h (0 Bft)
10.06.2020 22:05 13,2 C 92 % 1009,0 hPa 0,0 mm SO 145 0,0 km/h (0 Bft)
10.06.2020 22:10 13,1 C 92 % 1009,0 hPa 0,0 mm SO 145 0,0 km/h (0 Bft)
10.06.2020 22:15 13,1 C 92 % 1009,0 hPa 0,0 mm SO 145 0,0 km/h (0 Bft)
10.06.2020 22:20 13,1 C 92 % 1009,0 hPa 0,0 mm SO 145 0,0 km/h (0 Bft)
10.06.2020 22:25 13,1 C 92 % 1009,0 hPa 0,0 mm SO 145 0,0 km/h (0 Bft)
10.06.2020 22:30 13,0 C 92 % 1009,1 hPa 0,0 mm SO 145 0,0 km/h (0 Bft)
10.06.2020 22:35 13,0 C 92 % 1009,0 hPa 0,0 mm SO 145 0,0 km/h (0 Bft)
10.06.2020 22:40 13,0 C 92 % 1009,0 hPa 0,0 mm SO 145 0,0 km/h (0 Bft)
10.06.2020 22:45 13,0 C 92 % 1009,0 hPa 0,0 mm SO 145 0,0 km/h (0 Bft)
10.06.2020 22:50 12,9 C 92 % 1009,0 hPa 0,0 mm SO 145 0,0 km/h (0 Bft)
10.06.2020 22:55 12,9 C 92 % 1009,0 hPa 0,0 mm SO 145 0,0 km/h (0 Bft)
10.06.2020 23:00 12,9 C 92 % 1008,9 hPa 0,0 mm SO 145 0,0 km/h (0 Bft)
10.06.2020 23:05 12,9 C 92 % 1009,0 hPa 0,0 mm SO 145 0,0 km/h (0 Bft)
10.06.2020 23:10 12,8 C 92 % 1009,0 hPa 0,0 mm SO 145 0,0 km/h (0 Bft)
10.06.2020 23:15 12,8 C 92 % 1009,0 hPa 0,0 mm SO 145 0,0 km/h (0 Bft)
10.06.2020 23:20 12,8 C 92 % 1009,0 hPa 0,0 mm SO 145 0,0 km/h (0 Bft)
10.06.2020 23:25 12,8 C 92 % 1008,9 hPa 0,0 mm SO 145 0,0 km/h (0 Bft)
10.06.2020 23:30 12,8 C 92 % 1008,9 hPa 0,0 mm SO 145 0,0 km/h (0 Bft)
10.06.2020 23:35 12,8 C 92 % 1008,8 hPa 0,0 mm SO 145 0,0 km/h (0 Bft)
10.06.2020 23:40 12,8 C 92 % 1008,8 hPa 0,0 mm SO 145 0,0 km/h (0 Bft)
10.06.2020 23:45 12,8 C 92 % 1008,8 hPa 0,0 mm SO 145 0,0 km/h (0 Bft)
10.06.2020 23:50 12,8 C 92 % 1008,7 hPa 0,0 mm SO 145 0,0 km/h (0 Bft)
10.06.2020 23:55 12,8 C 92 % 1008,7 hPa 0,0 mm SO 145 0,0 km/h (0 Bft)
_ Min-Zeit 05:55 12:10 20:00 - - - 05:00
Minimum _ 12,5 C 84 % 1008,5 hPa - - - 0,0 km/h (0 Bft)
_ Max-Zeit 11:45 04:55 00:10 14:20 - - 14:15
Maximum _ 15,9 C 93 % 1011,7 hPa 0,8 mm - - 12,9 km/h
O (3 Bft)
Durchschnitt _ 13,8 C 91 % 1009,9 hPa #5,4 mm W - 3,7 km/h (1 Bft)